TimeEST,TemperatureF,Dew PointF,Humidity,Sea Level PressureIn,VisibilityMPH,Wind Direction,Wind SpeedMPH,Gust SpeedMPH,PrecipitationIn,Events,Conditions,WindDirDegrees,DateUTC
12:54 AM,53.1,48.0,83,30.09,10.0,SE,8.1,-,N/A,,Scattered Clouds,140,2013-01-11 05:54:00
1:54 AM,54.0,48.9,83,30.06,10.0,SE,5.8,-,N/A,,Overcast,140,2013-01-11 06:54:00
2:54 AM,54.0,50.0,86,30.04,10.0,SE,10.4,-,0.02,Rain,Light Rain,130,2013-01-11 07:54:00
3:54 AM,54.0,51.1,90,30.04,10.0,SSE,8.1,-,0.00,Rain,Light Rain,160,2013-01-11 08:54:00
4:54 AM,55.9,51.1,84,29.98,10.0,SE,12.7,-,0.00,,Overcast,140,2013-01-11 09:54:00
5:54 AM,55.9,52.0,87,29.95,10.0,SE,15.0,-,0.00,,Overcast,140,2013-01-11 10:54:00
6:54 AM,57.2,53.6,88,29.91,10.0,SSE,16.1,26.5,N/A,Rain,Light Rain,150,2013-01-11 11:54:00
7:19 AM,57.2,53.6,88,29.96,10.0,West,17.3,29.9,0.00,,Overcast,260,2013-01-11 12:19:00
7:22 AM,57.2,55.4,94,29.97,2.5,SW,19.6,29.9,0.00,Rain,Light Rain,230,2013-01-11 12:22:00
7:28 AM,57.2,55.4,94,29.97,1.2,WSW,17.3,27.6,0.22,Rain,Heavy Rain,240,2013-01-11 12:28:00
7:44 AM,55.4,55.4,100,29.98,5.0,WSW,17.3,24.2,0.26,Rain,Rain,250,2013-01-11 12:44:00
7:52 AM,55.4,55.4,100,29.99,5.0,WSW,13.8,23.0,0.29,Rain,Rain,250,2013-01-11 12:52:00
7:54 AM,55.4,55.4,100,29.99,6.0,WSW,13.8,21.9,N/A,Rain,Rain,250,2013-01-11 12:54:00
7:56 AM,55.4,55.4,100,30.00,6.0,WSW,16.1,21.9,N/A,Rain,Light Rain,250,2013-01-11 12:56:00
8:54 AM,55.0,54.0,96,30.01,10.0,SW,9.2,-,0.03,,Overcast,230,2013-01-11 13:54:00
9:54 AM,54.0,54.0,100,30.02,10.0,SSW,13.8,-,0.04,,Overcast,210,2013-01-11 14:54:00
10:54 AM,57.0,55.0,93,30.01,10.0,SW,11.5,-,0.00,,Partly Cloudy,220,2013-01-11 15:54:00
11:54 AM,59.0,53.1,81,29.99,10.0,SSW,15.0,-,N/A,,Clear,210,2013-01-11 16:54:00
12:54 PM,62.1,53.1,72,29.97,10.0,SW,13.8,24.2,N/A,,Clear,230,2013-01-11 17:54:00
1:54 PM,64.0,54.0,70,29.96,10.0,SW,16.1,23.0,N/A,,Clear,220,2013-01-11 18:54:00
2:54 PM,64.0,52.0,65,29.95,10.0,SW,18.4,34.5,N/A,,Clear,230,2013-01-11 19:54:00
3:54 PM,64.9,53.1,65,29.96,10.0,SW,13.8,-,N/A,,Clear,230,2013-01-11 20:54:00
4:54 PM,62.1,54.0,75,29.96,10.0,SSW,15.0,-,N/A,,Partly Cloudy,210,2013-01-11 21:54:00
5:54 PM,61.0,54.0,78,29.97,10.0,SSW,10.4,-,N/A,,Clear,200,2013-01-11 22:54:00
6:54 PM,59.0,53.1,81,29.99,10.0,SSW,9.2,-,N/A,,Clear,200,2013-01-11 23:54:00
7:54 PM,57.0,53.1,87,29.98,10.0,South,5.8,-,N/A,,Clear,170,2013-01-12 00:54:00
8:54 PM,57.0,54.0,89,29.99,10.0,South,8.1,-,N/A,,Clear,180,2013-01-12 01:54:00
9:54 PM,55.9,54.0,93,30.00,10.0,South,6.9,-,N/A,,Clear,170,2013-01-12 02:54:00
10:54 PM,55.9,54.0,93,30.00,10.0,South,8.1,-,N/A,,Clear,170,2013-01-12 03:54:00
11:54 PM,55.9,54.0,93,29.99,10.0,South,9.2,-,N/A,,Scattered Clouds,170,2013-01-12 04:54:00